owner,sensor,date,latitude,longitude,vertical_datum,direction_of_sea_water_velocity,sea_water_speed,upward_sea_water_velocity,qcFlag 
TABS,ioos:station:wmo:42045:1,2008-06-01T00:00:00Z,26.2168,-96.4998,2.0,8.945571374,24.0525508,-99999.0,'11111222,11111222,99999999' 
TABS,ioos:station:wmo:42045:1,2008-06-01T00:30:00Z,26.2168,-96.4998,2.0,17.10468724,23.56215822,-99999.0,'11111222,11111222,99999999' 
TABS,ioos:station:wmo:42045:1,2008-06-01T01:00:00Z,26.2168,-96.4998,2.0,5.641043657,23.70478855,-99999.0,'11111222,11111222,99999999' 
TABS,ioos:station:wmo:42045:1,2008-06-01T01:30:00Z,26.2168,-96.4998,2.0,12.77375736,22.34295638,-99999.0,'11111222,11111222,99999999' 
TABS,ioos:station:wmo:42045:1,2008-06-01T02:00:00Z,26.2168,-96.4998,2.0,5.385733334,22.80064911,-99999.0,'11111222,11111222,99999999' 
TABS,ioos:station:wmo:42045:1,2008-06-01T02:30:00Z,26.2168,-96.4998,2.0,9.145926794,28.56311608,-99999.0,'11111222,11111222,99999999' 
TABS,ioos:station:wmo:42045:1,2008-06-01T03:00:00Z,26.2168,-96.4998,2.0,12.20271464,29.33272746,-99999.0,'11111222,11111222,99999999' 
TABS,ioos:station:wmo:42045:1,2008-06-01T03:30:00Z,26.2168,-96.4998,2.0,4.997782798,30.30520912,-99999.0,'11111222,11111222,99999999' 
TABS,ioos:station:wmo:42045:1,2008-06-01T04:00:00Z,26.2168,-96.4998,2.0,6.399706443,28.79945312,-99999.0,'11111222,11111222,99999999' 
TABS,ioos:station:wmo:42045:1,2008-06-01T04:30:00Z,26.2168,-96.4998,2.0,9.968315184,29.98261163,-99999.0,'11111222,11111222,99999999' 
TABS,ioos:station:wmo:42045:1,2008-06-01T05:00:00Z,26.2168,-96.4998,2.0,2.322177079,35.04877744,-99999.0,'11111222,11111222,99999999' 
TABS,ioos:station:wmo:42045:1,2008-06-01T05:30:00Z,26.2168,-96.4998,2.0,3.709059802,36.9473815,-99999.0,'11111222,11111222,99999999' 
TABS,ioos:station:wmo:42045:1,2008-06-01T06:00:00Z,26.2168,-96.4998,2.0,9.393876594,34.31009327,-99999.0,'11111222,11111222,99999999' 
TABS,ioos:station:wmo:42045:1,2008-06-01T06:30:00Z,26.2168,-96.4998,2.0,10.25009934,37.31551956,-99999.0,'11111222,11111222,99999999' 
TABS,ioos:station:wmo:42045:1,2008-06-01T07:00:00Z,26.2168,-96.4998,2.0,13.74564103,36.32017759,-99999.0,'11111222,11111222,99999999' 
TABS,ioos:station:wmo:42045:1,2008-06-01T07:30:00Z,26.2168,-96.4998,2.0,17.72172508,36.82757798,-99999.0,'11111222,11111222,99999999' 
TABS,ioos:station:wmo:42045:1,2008-06-01T08:00:00Z,26.2168,-96.4998,2.0,24.04724441,33.69429922,-99999.0,'11111222,11111222,99999999' 
TABS,ioos:station:wmo:42045:1,2008-06-01T08:30:00Z,26.2168,-96.4998,2.0,22.45459015,39.42939513,-99999.0,'11111222,11111222,99999999' 
TABS,ioos:station:wmo:42045:1,2008-06-01T09:00:00Z,26.2168,-96.4998,2.0,27.33326454,37.69902121,-99999.0,'11111222,11111222,99999999' 
TABS,ioos:station:wmo:42045:1,2008-06-01T09:30:00Z,26.2168,-96.4998,2.0,29.10530023,36.32707668,-99999.0,'11111222,11111222,99999999' 
TABS,ioos:station:wmo:42045:1,2008-06-01T10:00:00Z,26.2168,-96.4998,2.0,30.04960908,36.86488438,-99999.0,'11111222,11111222,99999999' 
TABS,ioos:station:wmo:42045:1,2008-06-01T10:30:00Z,26.2168,-96.4998,2.0,33.86965409,35.42055477,-99999.0,'11111222,11111222,99999999' 
TABS,ioos:station:wmo:42045:1,2008-06-01T11:00:00Z,26.2168,-96.4998,2.0,40.00527948,28.66891173,-99999.0,'11111222,11111222,99999999' 
TABS,ioos:station:wmo:42045:1,2008-06-01T11:30:00Z,26.2168,-96.4998,2.0,29.90276709,33.33818231,-99999.0,'11111222,11111222,99999999' 
TABS,ioos:station:wmo:42045:1,2008-06-01T12:00:00Z,26.2168,-96.4998,2.0,29.19762823,33.4958684,-99999.0,'11111222,11111222,99999999' 
TABS,ioos:station:wmo:42045:1,2008-06-01T12:30:00Z,26.2168,-96.4998,2.0,33.92992854,30.49213669,-99999.0,'11111222,11111222,99999999' 
TABS,ioos:station:wmo:42045:1,2008-06-01T13:00:00Z,26.2168,-96.4998,2.0,33.53968559,28.50614144,-99999.0,'11111222,11111222,99999999' 
TABS,ioos:station:wmo:42045:1,2008-06-01T13:30:00Z,26.2168,-96.4998,2.0,36.52084209,27.23850583,-99999.0,'11111222,11111222,99999999' 
TABS,ioos:station:wmo:42045:1,2008-06-01T14:00:00Z,26.2168,-96.4998,2.0,36.26128992,25.22542368,-99999.0,'11111222,11111222,99999999' 
TABS,ioos:station:wmo:42045:1,2008-06-01T14:30:00Z,26.2168,-96.4998,2.0,37.81970684,26.30561347,-99999.0,'11111222,11111222,99999999' 
TABS,ioos:station:wmo:42045:1,2008-06-01T15:00:00Z,26.2168,-96.4998,2.0,37.49670568,23.77142192,-99999.0,'11111222,11111222,99999999' 
TABS,ioos:station:wmo:42045:1,2008-06-01T15:30:00Z,26.2168,-96.4998,2.0,39.40476736,23.78727391,-99999.0,'11111222,11111222,99999999' 
TABS,ioos:station:wmo:42045:1,2008-06-01T16:00:00Z,26.2168,-96.4998,2.0,27.73530067,21.680964,-99999.0,'11111222,11111222,99999999' 
TABS,ioos:station:wmo:42045:1,2008-06-01T16:30:00Z,26.2168,-96.4998,2.0,25.42804258,25.01311056,-99999.0,'11111222,11111222,99999999' 
TABS,ioos:station:wmo:42045:1,2008-06-01T17:00:00Z,26.2168,-96.4998,2.0,36.20659554,22.10948213,-99999.0,'11111222,11111222,99999999' 
TABS,ioos:station:wmo:42045:1,2008-06-01T17:30:00Z,26.2168,-96.4998,2.0,22.10630765,25.13793349,-99999.0,'11111222,11111222,99999999' 
TABS,ioos:station:wmo:42045:1,2008-06-01T18:00:00Z,26.2168,-96.4998,2.0,25.08016642,24.67659012,-99999.0,'11111222,11111222,99999999' 
TABS,ioos:station:wmo:42045:1,2008-06-01T18:30:00Z,26.2168,-96.4998,2.0,27.20807202,23.11792595,-99999.0,'11111222,11111222,99999999' 
TABS,ioos:station:wmo:42045:1,2008-06-01T19:00:00Z,26.2168,-96.4998,2.0,28.52892125,21.27302752,-99999.0,'11111222,11111222,99999999' 
TABS,ioos:station:wmo:42045:1,2008-06-01T19:30:00Z,26.2168,-96.4998,2.0,28.39490024,23.53096046,-99999.0,'11111222,11111222,99999999' 
TABS,ioos:station:wmo:42045:1,2008-06-01T20:00:00Z,26.2168,-96.4998,2.0,20.05337933,23.73919965,-99999.0,'11111222,11111222,99999999' 
TABS,ioos:station:wmo:42045:1,2008-06-01T20:30:00Z,26.2168,-96.4998,2.0,21.59031274,23.67074566,-99999.0,'11111222,11111222,99999999' 
TABS,ioos:station:wmo:42045:1,2008-06-01T21:00:00Z,26.2168,-96.4998,2.0,19.28059841,22.50205546,-99999.0,'11111222,11111222,99999999' 
TABS,ioos:station:wmo:42045:1,2008-06-01T21:30:00Z,26.2168,-96.4998,2.0,23.20421074,27.53758522,-99999.0,'11111222,11111222,99999999' 
TABS,ioos:station:wmo:42045:1,2008-06-01T22:00:00Z,26.2168,-96.4998,2.0,23.21431337,28.9977137,-99999.0,'11111222,11111222,99999999' 
TABS,ioos:station:wmo:42045:1,2008-06-01T22:30:00Z,26.2168,-96.4998,2.0,29.7072884,22.60037389,-99999.0,'11111222,11111222,99999999' 
TABS,ioos:station:wmo:42045:1,2008-06-01T23:00:00Z,26.2168,-96.4998,2.0,26.21152718,26.08199379,-99999.0,'11111222,11111222,99999999' 
TABS,ioos:station:wmo:42045:1,2008-06-01T23:30:00Z,26.2168,-96.4998,2.0,21.69147832,24.16086505,-99999.0,'11111222,11111222,99999999' 
TABS,ioos:station:wmo:42045:1,2008-06-02T00:00:00Z,26.2168,-96.4998,2.0,25.93046837,29.06619514,-99999.0,'11111222,11111222,99999999' 
TABS,ioos:station:wmo:42045:1,2008-06-02T00:30:00Z,26.2168,-96.4998,2.0,30.00477091,24.07662975,-99999.0,'11111222,11111222,99999999' 
TABS,ioos:station:wmo:42045:1,2008-06-02T01:00:00Z,26.2168,-96.4998,2.0,24.44599311,25.155081,-99999.0,'11111222,11111222,99999999' 
TABS,ioos:station:wmo:42045:1,2008-06-02T01:30:00Z,26.2168,-96.4998,2.0,22.69147355,27.14079033,-99999.0,'11111222,11111222,99999999' 
TABS,ioos:station:wmo:42045:1,2008-06-02T02:00:00Z,26.2168,-96.4998,2.0,14.02847662,17.49166945,-99999.0,'11111222,11111222,99999999' 
TABS,ioos:station:wmo:42045:1,2008-06-02T02:30:00Z,26.2168,-96.4998,2.0,21.13941733,25.06683067,-99999.0,'11111222,11111222,99999999' 
TABS,ioos:station:wmo:42045:1,2008-06-02T03:00:00Z,26.2168,-96.4998,2.0,19.04338539,26.51086758,-99999.0,'11111222,11111222,99999999' 
TABS,ioos:station:wmo:42045:1,2008-06-02T03:30:00Z,26.2168,-96.4998,2.0,16.62719036,23.55488272,-99999.0,'11111222,11111222,99999999' 
TABS,ioos:station:wmo:42045:1,2008-06-02T04:00:00Z,26.2168,-96.4998,2.0,11.93684422,25.8182726,-99999.0,'11111222,11111222,99999999' 
TABS,ioos:station:wmo:42045:1,2008-06-02T04:30:00Z,26.2168,-96.4998,2.0,9.35202052,28.98523935,-99999.0,'11111222,11111222,99999999' 
TABS,ioos:station:wmo:42045:1,2008-06-02T05:00:00Z,26.2168,-96.4998,2.0,10.5133621,31.73269765,-99999.0,'11111222,11111222,99999999' 
TABS,ioos:station:wmo:42045:1,2008-06-02T05:30:00Z,26.2168,-96.4998,2.0,17.54782667,31.2438874,-99999.0,'11111222,11111222,99999999' 
TABS,ioos:station:wmo:42045:1,2008-06-02T06:00:00Z,26.2168,-96.4998,2.0,13.79025907,32.17749835,-99999.0,'11111222,11111222,99999999' 
TABS,ioos:station:wmo:42045:1,2008-06-02T06:30:00Z,26.2168,-96.4998,2.0,11.86203141,35.22213083,-99999.0,'11111222,11111222,99999999' 
TABS,ioos:station:wmo:42045:1,2008-06-02T07:00:00Z,26.2168,-96.4998,2.0,16.85092427,34.77304703,-99999.0,'11111222,11111222,99999999' 
TABS,ioos:station:wmo:42045:1,2008-06-02T07:30:00Z,26.2168,-96.4998,2.0,13.03339115,35.6072605,-99999.0,'11111222,11111222,99999999' 
TABS,ioos:station:wmo:42045:1,2008-06-02T08:00:00Z,26.2168,-96.4998,2.0,13.79477245,33.92861035,-99999.0,'11111222,11111222,99999999' 
TABS,ioos:station:wmo:42045:1,2008-06-02T08:30:00Z,26.2168,-96.4998,2.0,15.23291529,33.6834158,-99999.0,'11111222,11111222,99999999' 
TABS,ioos:station:wmo:42045:1,2008-06-02T09:00:00Z,26.2168,-96.4998,2.0,16.73646607,38.5113295,-99999.0,'11111222,11111222,99999999' 
TABS,ioos:station:wmo:42045:1,2008-06-02T09:30:00Z,26.2168,-96.4998,2.0,17.56498542,39.56465594,-99999.0,'11111222,11111222,99999999' 
TABS,ioos:station:wmo:42045:1,2008-06-02T10:00:00Z,26.2168,-96.4998,2.0,17.74200046,38.4276476,-99999.0,'11111222,11111222,99999999' 
TABS,ioos:station:wmo:42045:1,2008-06-02T10:30:00Z,26.2168,-96.4998,2.0,17.6064401,38.48261945,-99999.0,'11111222,11111222,99999999' 
TABS,ioos:station:wmo:42045:1,2008-06-02T11:00:00Z,26.2168,-96.4998,2.0,13.56178268,30.44896714,-99999.0,'11111222,11111222,99999999' 
TABS,ioos:station:wmo:42045:1,2008-06-02T11:30:00Z,26.2168,-96.4998,2.0,17.62590945,33.58673845,-99999.0,'11111222,11111222,99999999' 
TABS,ioos:station:wmo:42045:1,2008-06-02T12:00:00Z,26.2168,-96.4998,2.0,21.93800857,35.09094755,-99999.0,'11111222,11111222,99999999' 
TABS,ioos:station:wmo:42045:1,2008-06-02T12:30:00Z,26.2168,-96.4998,2.0,23.35643663,33.39660462,-99999.0,'11111222,11111222,99999999' 
TABS,ioos:station:wmo:42045:1,2008-06-02T13:00:00Z,26.2168,-96.4998,2.0,19.99575145,35.29778747,-99999.0,'11111222,11111222,99999999' 
TABS,ioos:station:wmo:42045:1,2008-06-02T13:30:00Z,26.2168,-96.4998,2.0,24.5637877,33.6778399,-99999.0,'11111222,11111222,99999999' 
TABS,ioos:station:wmo:42045:1,2008-06-02T14:00:00Z,26.2168,-96.4998,2.0,24.89596614,33.16154399,-99999.0,'11111222,11111222,99999999' 
TABS,ioos:station:wmo:42045:1,2008-06-02T14:30:00Z,26.2168,-96.4998,2.0,25.07631823,32.70235466,-99999.0,'11111222,11111222,99999999' 
TABS,ioos:station:wmo:42045:1,2008-06-02T15:00:00Z,26.2168,-96.4998,2.0,21.98932214,31.1672729,-99999.0,'11111222,11111222,99999999' 
TABS,ioos:station:wmo:42045:1,2008-06-02T15:30:00Z,26.2168,-96.4998,2.0,20.5389082,31.01122377,-99999.0,'11111222,11111222,99999999' 
TABS,ioos:station:wmo:42045:1,2008-06-02T16:00:00Z,26.2168,-96.4998,2.0,18.10548653,26.93356456,-99999.0,'11111222,11111222,99999999' 
TABS,ioos:station:wmo:42045:1,2008-06-02T16:30:00Z,26.2168,-96.4998,2.0,17.74630928,29.7243957,-99999.0,'11111222,11111222,99999999' 
TABS,ioos:station:wmo:42045:1,2008-06-02T17:00:00Z,26.2168,-96.4998,2.0,9.811444384,28.34455503,-99999.0,'11111222,11111222,99999999' 
TABS,ioos:station:wmo:42045:1,2008-06-02T17:30:00Z,26.2168,-96.4998,2.0,12.32368689,26.94076651,-99999.0,'11111222,11111222,99999999' 
TABS,ioos:station:wmo:42045:1,2008-06-02T18:00:00Z,26.2168,-96.4998,2.0,13.77752309,24.69037869,-99999.0,'11111222,11111222,99999999' 
TABS,ioos:station:wmo:42045:1,2008-06-02T18:30:00Z,26.2168,-96.4998,2.0,19.63225155,24.82297323,-99999.0,'11111222,11111222,99999999' 
TABS,ioos:station:wmo:42045:1,2008-06-02T19:00:00Z,26.2168,-96.4998,2.0,17.61545146,25.64237119,-99999.0,'11111222,11111222,99999999' 
TABS,ioos:station:wmo:42045:1,2008-06-02T19:30:00Z,26.2168,-96.4998,2.0,21.91354167,24.70495497,-99999.0,'11111222,11111222,99999999' 
TABS,ioos:station:wmo:42045:1,2008-06-02T20:00:00Z,26.2168,-96.4998,2.0,26.60955456,23.1075334,-99999.0,'11111222,11111222,99999999' 
TABS,ioos:station:wmo:42045:1,2008-06-02T20:30:00Z,26.2168,-96.4998,2.0,23.87728869,23.17327124,-99999.0,'11111222,11111222,99999999' 
TABS,ioos:station:wmo:42045:1,2008-06-02T21:00:00Z,26.2168,-96.4998,2.0,22.339757,20.75794065,-99999.0,'11111222,11111222,99999999' 
TABS,ioos:station:wmo:42045:1,2008-06-02T21:30:00Z,26.2168,-96.4998,2.0,26.98201066,22.74588534,-99999.0,'11111222,11111222,99999999' 
TABS,ioos:station:wmo:42045:1,2008-06-02T22:00:00Z,26.2168,-96.4998,2.0,26.27199337,19.22596422,-99999.0,'11111222,11111222,99999999' 
TABS,ioos:station:wmo:42045:1,2008-06-02T22:30:00Z,26.2168,-96.4998,2.0,27.48848882,21.92525713,-99999.0,'11111222,11111222,99999999' 
TABS,ioos:station:wmo:42045:1,2008-06-02T23:00:00Z,26.2168,-96.4998,2.0,23.36496513,18.10460715,-99999.0,'11111222,11111222,99999999' 
TABS,ioos:station:wmo:42045:1,2008-06-02T23:30:00Z,26.2168,-96.4998,2.0,26.55219846,19.70870366,-99999.0,'11111222,11111222,99999999' 
TABS,ioos:station:wmo:42045:1,2008-06-03T00:00:00Z,26.2168,-96.4998,2.0,21.53818121,18.98569198,-99999.0,'11111222,11111222,99999999' 
TABS,ioos:station:wmo:42045:1,2008-06-03T00:30:00Z,26.2168,-96.4998,2.0,10.19897355,17.39484981,-99999.0,'11111222,11111222,99999999' 
TABS,ioos:station:wmo:42045:1,2008-06-03T01:00:00Z,26.2168,-96.4998,2.0,7.864216865,20.09901988,-99999.0,'11111222,11111222,99999999' 
TABS,ioos:station:wmo:42045:1,2008-06-03T01:30:00Z,26.2168,-96.4998,2.0,2.491030032,19.55847898,-99999.0,'11111222,11111222,99999999' 
TABS,ioos:station:wmo:42045:1,2008-06-03T02:00:00Z,26.2168,-96.4998,2.0,8.753480366,12.22235656,-99999.0,'11111222,11111222,99999999' 
TABS,ioos:station:wmo:42045:1,2008-06-03T02:30:00Z,26.2168,-96.4998,2.0,5.165072056,17.55126206,-99999.0,'11111222,11111222,99999999' 
TABS,ioos:station:wmo:42045:1,2008-06-03T03:00:00Z,26.2168,-96.4998,2.0,13.97648844,18.54913475,-99999.0,'11111222,11111222,99999999' 
TABS,ioos:station:wmo:42045:1,2008-06-03T03:30:00Z,26.2168,-96.4998,2.0,350.9872097,21.38403376,-99999.0,'11111222,11111222,99999999' 
TABS,ioos:station:wmo:42045:1,2008-06-03T04:00:00Z,26.2168,-96.4998,2.0,354.8057937,26.17750561,-99999.0,'11111222,11111222,99999999' 
TABS,ioos:station:wmo:42045:1,2008-06-03T04:30:00Z,26.2168,-96.4998,2.0,354.1178982,28.88207922,-99999.0,'11111222,11111222,99999999' 
TABS,ioos:station:wmo:42045:1,2008-06-03T05:00:00Z,26.2168,-96.4998,2.0,355.5063776,29.09945876,-99999.0,'11111222,11111222,99999999' 
TABS,ioos:station:wmo:42045:1,2008-06-03T05:30:00Z,26.2168,-96.4998,2.0,355.9679798,34.41518996,-99999.0,'11111222,11111222,99999999' 
TABS,ioos:station:wmo:42045:1,2008-06-03T06:00:00Z,26.2168,-96.4998,2.0,353.1148287,34.70026081,-99999.0,'11111222,11111222,99999999' 
TABS,ioos:station:wmo:42045:1,2008-06-03T06:30:00Z,26.2168,-96.4998,2.0,356.4658057,36.65972859,-99999.0,'11111222,11111222,99999999' 
TABS,ioos:station:wmo:42045:1,2008-06-03T07:00:00Z,26.2168,-96.4998,2.0,355.5865108,38.07291032,-99999.0,'11111222,11111222,99999999' 
TABS,ioos:station:wmo:42045:1,2008-06-03T07:30:00Z,26.2168,-96.4998,2.0,357.7398886,43.10353698,-99999.0,'11111222,11111222,99999999' 
TABS,ioos:station:wmo:42045:1,2008-06-03T08:00:00Z,26.2168,-96.4998,2.0,354.5178783,43.96109189,-99999.0,'11111222,11111222,99999999' 
TABS,ioos:station:wmo:42045:1,2008-06-03T08:30:00Z,26.2168,-96.4998,2.0,2.15822306,49.39503214,-99999.0,'11111222,11111222,99999999' 
TABS,ioos:station:wmo:42045:1,2008-06-03T09:00:00Z,26.2168,-96.4998,2.0,2.370546069,47.39054864,-99999.0,'11111222,11111222,99999999' 
TABS,ioos:station:wmo:42045:1,2008-06-03T09:30:00Z,26.2168,-96.4998,2.0,6.584485693,46.65774319,-99999.0,'11111222,11111222,99999999' 
TABS,ioos:station:wmo:42045:1,2008-06-03T10:00:00Z,26.2168,-96.4998,2.0,10.95741177,51.61090001,-99999.0,'11111222,11111222,99999999' 
TABS,ioos:station:wmo:42045:1,2008-06-03T10:30:00Z,26.2168,-96.4998,2.0,12.93023748,51.88561458,-99999.0,'11111222,11111222,99999999' 
TABS,ioos:station:wmo:42045:1,2008-06-03T11:00:00Z,26.2168,-96.4998,2.0,13.99501102,43.62489427,-99999.0,'11111222,11111222,99999999' 
TABS,ioos:station:wmo:42045:1,2008-06-03T11:30:00Z,26.2168,-96.4998,2.0,18.78468868,51.83069554,-99999.0,'11111222,11111222,99999999' 
TABS,ioos:station:wmo:42045:1,2008-06-03T12:00:00Z,26.2168,-96.4998,2.0,19.73413702,54.81952298,-99999.0,'11111222,11111222,99999999' 
TABS,ioos:station:wmo:42045:1,2008-06-03T12:30:00Z,26.2168,-96.4998,2.0,18.62120508,54.524279,-99999.0,'11111222,11111222,99999999' 
TABS,ioos:station:wmo:42045:1,2008-06-03T13:00:00Z,26.2168,-96.4998,2.0,23.42467693,54.61077,-99999.0,'11111222,11111222,99999999' 
TABS,ioos:station:wmo:42045:1,2008-06-03T13:30:00Z,26.2168,-96.4998,2.0,21.38691233,54.65342624,-99999.0,'11111222,11111222,99999999' 
TABS,ioos:station:wmo:42045:1,2008-06-03T14:00:00Z,26.2168,-96.4998,2.0,25.59300907,51.92450096,-99999.0,'11111222,11111222,99999999' 
TABS,ioos:station:wmo:42045:1,2008-06-03T14:30:00Z,26.2168,-96.4998,2.0,25.56522455,52.78818807,-99999.0,'11111222,11111222,99999999' 
TABS,ioos:station:wmo:42045:1,2008-06-03T15:00:00Z,26.2168,-96.4998,2.0,21.71671582,53.91670057,-99999.0,'11111222,11111222,99999999' 
TABS,ioos:station:wmo:42045:1,2008-06-03T15:30:00Z,26.2168,-96.4998,2.0,21.49343076,51.44763746,-99999.0,'11111222,11111222,99999999' 
TABS,ioos:station:wmo:42045:1,2008-06-03T16:00:00Z,26.2168,-96.4998,2.0,22.07049697,47.07985769,-99999.0,'11111222,11111222,99999999' 
TABS,ioos:station:wmo:42045:1,2008-06-03T16:30:00Z,26.2168,-96.4998,2.0,23.06978129,49.58537385,-99999.0,'11111222,11111222,99999999' 
TABS,ioos:station:wmo:42045:1,2008-06-03T17:00:00Z,26.2168,-96.4998,2.0,21.0737062,47.94669123,-99999.0,'11111222,11111222,99999999' 
TABS,ioos:station:wmo:42045:1,2008-06-03T17:30:00Z,26.2168,-96.4998,2.0,22.90303367,51.39139617,-99999.0,'11111222,11111222,99999999' 
TABS,ioos:station:wmo:42045:1,2008-06-03T18:00:00Z,26.2168,-96.4998,2.0,21.87140973,48.74877639,-99999.0,'11111222,11111222,99999999' 
TABS,ioos:station:wmo:42045:1,2008-06-03T18:30:00Z,26.2168,-96.4998,2.0,25.72148148,50.41538257,-99999.0,'11111222,11111222,99999999' 
TABS,ioos:station:wmo:42045:1,2008-06-03T19:00:00Z,26.2168,-96.4998,2.0,24.08722991,49.02915153,-99999.0,'11111222,11111222,99999999' 
TABS,ioos:station:wmo:42045:1,2008-06-03T19:30:00Z,26.2168,-96.4998,2.0,21.54739841,44.79015628,-99999.0,'11111222,11111222,99999999' 
TABS,ioos:station:wmo:42045:1,2008-06-03T20:00:00Z,26.2168,-96.4998,2.0,21.16265787,41.79890549,-99999.0,'11111222,11111222,99999999' 
TABS,ioos:station:wmo:42045:1,2008-06-03T20:30:00Z,26.2168,-96.4998,2.0,21.76452637,45.9558919,-99999.0,'11111222,11111222,99999999' 
TABS,ioos:station:wmo:42045:1,2008-06-03T21:00:00Z,26.2168,-96.4998,2.0,16.49903013,44.36678487,-99999.0,'11111222,11111222,99999999' 
TABS,ioos:station:wmo:42045:1,2008-06-03T21:30:00Z,26.2168,-96.4998,2.0,21.67262357,43.73136289,-99999.0,'11111222,11111222,99999999' 
TABS,ioos:station:wmo:42045:1,2008-06-03T22:00:00Z,26.2168,-96.4998,2.0,22.30080343,41.55833731,-99999.0,'11111222,11111222,99999999' 
TABS,ioos:station:wmo:42045:1,2008-06-03T22:30:00Z,26.2168,-96.4998,2.0,22.93386902,37.77595134,-99999.0,'11111222,11111222,99999999' 
TABS,ioos:station:wmo:42045:1,2008-06-03T23:00:00Z,26.2168,-96.4998,2.0,16.2411179,38.07960215,-99999.0,'11111222,11111222,99999999' 
TABS,ioos:station:wmo:42045:1,2008-06-03T23:30:00Z,26.2168,-96.4998,2.0,22.94686314,31.95898152,-99999.0,'11111222,11111222,99999999' 
TABS,ioos:station:wmo:42045:1,2008-06-04T00:00:00Z,26.2168,-96.4998,2.0,14.96087461,32.77082849,-99999.0,'11111222,11111222,99999999' 
TABS,ioos:station:wmo:42045:1,2008-06-04T00:30:00Z,26.2168,-96.4998,2.0,14.91017245,31.01421126,-99999.0,'11111222,11111222,99999999' 
TABS,ioos:station:wmo:42045:1,2008-06-04T01:00:00Z,26.2168,-96.4998,2.0,1.344931703,29.82821483,-99999.0,'11111222,11111222,99999999' 
TABS,ioos:station:wmo:42045:1,2008-06-04T01:30:00Z,26.2168,-96.4998,2.0,359.8563035,27.87008791,-99999.0,'11111222,11144222,99999999' 
TABS,ioos:station:wmo:42045:1,2008-06-04T02:00:00Z,26.2168,-96.4998,2.0,352.7027052,30.07359806,-99999.0,'11111222,11111222,99999999' 
TABS,ioos:station:wmo:42045:1,2008-06-04T02:30:00Z,26.2168,-96.4998,2.0,0.662929041,26.80179285,-99999.0,'11111222,11111222,99999999' 
TABS,ioos:station:wmo:42045:1,2008-06-04T03:00:00Z,26.2168,-96.4998,2.0,346.2579693,28.83544,-99999.0,'11111222,11111222,99999999' 
TABS,ioos:station:wmo:42045:1,2008-06-04T03:30:00Z,26.2168,-96.4998,2.0,345.4610584,30.39331012,-99999.0,'11111222,11111222,99999999' 
TABS,ioos:station:wmo:42045:1,2008-06-04T04:00:00Z,26.2168,-96.4998,2.0,338.1325589,28.8886431,-99999.0,'11111222,11111222,99999999' 
TABS,ioos:station:wmo:42045:1,2008-06-04T04:30:00Z,26.2168,-96.4998,2.0,339.5127419,35.22824009,-99999.0,'11111222,11111222,99999999' 
TABS,ioos:station:wmo:42045:1,2008-06-04T05:00:00Z,26.2168,-96.4998,2.0,341.3142299,36.08193454,-99999.0,'11111222,11111222,99999999' 
TABS,ioos:station:wmo:42045:1,2008-06-04T05:30:00Z,26.2168,-96.4998,2.0,337.6940576,37.93903004,-99999.0,'11111222,11111222,99999999' 
TABS,ioos:station:wmo:42045:1,2008-06-04T06:00:00Z,26.2168,-96.4998,2.0,333.5597342,39.09997698,-99999.0,'11111222,11111222,99999999' 
TABS,ioos:station:wmo:42045:1,2008-06-04T06:30:00Z,26.2168,-96.4998,2.0,331.544321,43.50626851,-99999.0,'11111222,11111222,99999999' 
TABS,ioos:station:wmo:42045:1,2008-06-04T07:00:00Z,26.2168,-96.4998,2.0,342.2407393,42.6526025,-99999.0,'11111222,11111222,99999999' 
TABS,ioos:station:wmo:42045:1,2008-06-04T07:30:00Z,26.2168,-96.4998,2.0,336.4033669,46.4652171,-99999.0,'11111222,11111222,99999999' 
TABS,ioos:station:wmo:42045:1,2008-06-04T08:00:00Z,26.2168,-96.4998,2.0,337.0076575,49.30719724,-99999.0,'11111222,11111222,99999999' 
TABS,ioos:station:wmo:42045:1,2008-06-04T08:30:00Z,26.2168,-96.4998,2.0,343.4710083,49.06774093,-99999.0,'11111222,11111222,99999999' 
TABS,ioos:station:wmo:42045:1,2008-06-04T09:00:00Z,26.2168,-96.4998,2.0,344.6469138,54.23559348,-99999.0,'11111222,11111222,99999999' 
TABS,ioos:station:wmo:42045:1,2008-06-04T09:30:00Z,26.2168,-96.4998,2.0,346.9919126,56.37677713,-99999.0,'11111222,11111222,99999999' 
TABS,ioos:station:wmo:42045:1,2008-06-04T10:00:00Z,26.2168,-96.4998,2.0,344.3513644,56.53561798,-99999.0,'11111222,11111222,99999999' 
TABS,ioos:station:wmo:42045:1,2008-06-04T10:30:00Z,26.2168,-96.4998,2.0,345.1575676,55.31572832,-99999.0,'11111222,11111222,99999999' 
TABS,ioos:station:wmo:42045:1,2008-06-04T11:00:00Z,26.2168,-96.4998,2.0,356.5668157,50.26021289,-99999.0,'11111222,11111222,99999999' 
TABS,ioos:station:wmo:42045:1,2008-06-04T11:30:00Z,26.2168,-96.4998,2.0,354.2720797,61.71817966,-99999.0,'11111222,11111222,99999999' 
TABS,ioos:station:wmo:42045:1,2008-06-04T12:00:00Z,26.2168,-96.4998,2.0,353.882542,56.01902266,-99999.0,'11111222,11111222,99999999' 
TABS,ioos:station:wmo:42045:1,2008-06-04T12:30:00Z,26.2168,-96.4998,2.0,0.32001538,57.33089307,-99999.0,'11111222,11111222,99999999' 
TABS,ioos:station:wmo:42045:1,2008-06-04T13:00:00Z,26.2168,-96.4998,2.0,359.6276823,61.52130038,-99999.0,'11111222,11144222,99999999' 
TABS,ioos:station:wmo:42045:1,2008-06-04T13:30:00Z,26.2168,-96.4998,2.0,4.040996936,61.02169204,-99999.0,'11111222,11111222,99999999' 
TABS,ioos:station:wmo:42045:1,2008-06-04T14:00:00Z,26.2168,-96.4998,2.0,3.002237903,58.81070736,-99999.0,'11111222,11111222,99999999' 
TABS,ioos:station:wmo:42045:1,2008-06-04T14:30:00Z,26.2168,-96.4998,2.0,6.231249025,61.45304712,-99999.0,'11111222,11111222,99999999' 
TABS,ioos:station:wmo:42045:1,2008-06-04T15:00:00Z,26.2168,-96.4998,2.0,7.193005583,58.70195993,-99999.0,'11111222,11111222,99999999' 
TABS,ioos:station:wmo:42045:1,2008-06-04T15:30:00Z,26.2168,-96.4998,2.0,10.24630978,56.72460225,-99999.0,'11111222,11111222,99999999' 
TABS,ioos:station:wmo:42045:1,2008-06-04T16:00:00Z,26.2168,-96.4998,2.0,9.018920198,60.73080602,-99999.0,'11111222,11111222,99999999' 